LAN081 SCEL-SCCI

Flight info

Callsign LAN081
Flight time 2h 57m
Altitude 35000
Route LINER6C LINER UQ805 TIGNO UQ803 NEDAX NEDAX3F
Aircraft A320/M-SDE3FGHIRWY/LB1

Departure

Time 2026-05-04 23:11
Airport Comodoro Arturo Merino Benítez International Airport (SCEL)

Arrival

Time 2026-05-05 02:09
Airport President Carlos Ibáñez International Airport (SCCI)
Time Latitude Longitude Altitude Speed Heading
2026-05-04 22:27 -33.39596 -70.79373 1565 ft 0 kts 176°
2026-05-04 22:56 -33.39579 -70.79374 1564 ft 4 kts 177°
2026-05-04 22:56 -33.39552 -70.79375 1564 ft 4 kts 178°
2026-05-04 22:56 -33.39530 -70.79376 1564 ft 4 kts 191°
2026-05-04 22:56 -33.39510 -70.79362 1564 ft 4 kts 251°
2026-05-04 22:57 -33.39506 -70.79336 1564 ft 0 kts 267°
2026-05-04 23:00 -33.39507 -70.79346 1564 ft 2 kts 267°
2026-05-04 23:00 -33.39508 -70.79381 1552 ft 6 kts 268°
2026-05-04 23:01 -33.39511 -70.79451 1548 ft 10 kts 266°
2026-05-04 23:01 -33.39513 -70.79552 1549 ft 13 kts 282°
2026-05-04 23:01 -33.39441 -70.79584 1549 ft 12 kts 358°
2026-05-04 23:01 -33.39362 -70.79590 1546 ft 11 kts 349°
2026-05-04 23:02 -33.39332 -70.79659 1548 ft 9 kts 268°
2026-05-04 23:02 -33.39338 -70.79739 1548 ft 10 kts 267°
2026-05-04 23:02 -33.39341 -70.79819 1549 ft 10 kts 267°
2026-05-04 23:02 -33.39344 -70.79897 1551 ft 9 kts 268°
2026-05-04 23:03 -33.39342 -70.79972 1552 ft 9 kts 282°
2026-05-04 23:03 -33.39303 -70.80030 1566 ft 9 kts 320°
2026-05-04 23:03 -33.39243 -70.80060 1566 ft 10 kts 358°
2026-05-04 23:03 -33.39167 -70.80064 1566 ft 12 kts 357°
2026-05-04 23:04 -33.39076 -70.80069 1566 ft 14 kts 357°
2026-05-04 23:04 -33.38975 -70.80076 1567 ft 14 kts 358°
2026-05-04 23:04 -33.38876 -70.80081 1567 ft 14 kts 358°
2026-05-04 23:04 -33.38780 -70.80086 1567 ft 14 kts 357°
2026-05-04 23:05 -33.38683 -70.80091 1567 ft 15 kts 358°
2026-05-04 23:05 -33.38575 -70.80096 1567 ft 16 kts 357°
2026-05-04 23:05 -33.38467 -70.80104 1567 ft 15 kts 357°
2026-05-04 23:05 -33.38360 -70.80108 1566 ft 15 kts 358°
2026-05-04 23:06 -33.38253 -70.80114 1566 ft 15 kts 358°
2026-05-04 23:06 -33.38150 -70.80120 1566 ft 15 kts 356°
2026-05-04 23:06 -33.38051 -70.80125 1566 ft 14 kts 358°
2026-05-04 23:06 -33.37954 -70.80130 1566 ft 14 kts 357°
2026-05-04 23:07 -33.37860 -70.80135 1566 ft 13 kts 357°
2026-05-04 23:07 -33.37770 -70.80139 1566 ft 12 kts 358°
2026-05-04 23:07 -33.37686 -70.80144 1566 ft 12 kts 357°
2026-05-04 23:07 -33.37604 -70.80148 1566 ft 12 kts 358°
2026-05-04 23:08 -33.37521 -70.80152 1566 ft 12 kts 357°
2026-05-04 23:08 -33.37435 -70.80157 1566 ft 13 kts 356°
2026-05-04 23:08 -33.37343 -70.80162 1567 ft 14 kts 358°
2026-05-04 23:08 -33.37245 -70.80167 1567 ft 15 kts 357°
2026-05-04 23:09 -33.37141 -70.80180 1567 ft 15 kts 335°
2026-05-04 23:09 -33.37106 -70.80245 1569 ft 5 kts 281°
2026-05-04 23:09 -33.37104 -70.80269 1570 ft 1 kts 271°
2026-05-04 23:09 -33.37104 -70.80270 1570 ft 0 kts 271°
2026-05-04 23:10 -33.37104 -70.80284 1571 ft 3 kts 269°
2026-05-04 23:10 -33.37110 -70.80315 1573 ft 5 kts 249°
2026-05-04 23:10 -33.37142 -70.80362 1574 ft 11 kts 214°
2026-05-04 23:10 -33.37250 -70.80371 1573 ft 24 kts 176°
2026-05-04 23:11 -33.37634 -70.80349 1572 ft 86 kts 178°
2026-05-04 23:11 -33.38409 -70.80302 1573 ft 135 kts 178°
2026-05-04 23:11 -33.39483 -70.80263 1611 ft 170 kts 177°
2026-05-04 23:11 -33.40656 -70.80237 2161 ft 168 kts 178°
2026-05-04 23:12 -33.41829 -70.80200 2606 ft 173 kts 178°
2026-05-04 23:12 -33.43023 -70.80122 3121 ft 170 kts 176°
2026-05-04 23:12 -33.44194 -70.80015 3586 ft 170 kts 176°
2026-05-04 23:12 -33.45444 -70.79920 3767 ft 190 kts 177°
2026-05-04 23:13 -33.46830 -70.79850 3988 ft 209 kts 178°
2026-05-04 23:13 -33.48362 -70.79776 4179 ft 232 kts 178°
2026-05-04 23:13 -33.50056 -70.79687 4434 ft 256 kts 177°
2026-05-04 23:13 -33.51895 -70.79586 4930 ft 270 kts 177°
2026-05-04 23:14 -33.53798 -70.79472 5621 ft 277 kts 176°
2026-05-04 23:14 -33.55738 -70.79291 6352 ft 282 kts 175°
2026-05-04 23:14 -33.57700 -70.79070 7033 ft 287 kts 175°
2026-05-04 23:14 -33.59712 -70.78835 7715 ft 292 kts 175°
2026-05-04 23:15 -33.61753 -70.78596 8383 ft 297 kts 175°
2026-05-04 23:15 -33.63824 -70.78358 9067 ft 302 kts 175°
2026-05-04 23:15 -33.65934 -70.78120 9738 ft 307 kts 176°
2026-05-04 23:15 -33.68084 -70.77886 10228 ft 318 kts 176°
2026-05-04 23:16 -33.70368 -70.77641 10366 ft 340 kts 176°
2026-05-04 23:16 -33.72797 -70.77379 10506 ft 361 kts 176°
2026-05-04 23:16 -33.75339 -70.77106 10928 ft 370 kts 176°
2026-05-04 23:16 -33.77920 -70.76827 11504 ft 374 kts 176°
2026-05-04 23:17 -33.80489 -70.76546 12097 ft 377 kts 177°
2026-05-04 23:17 -33.83116 -70.76259 12702 ft 381 kts 177°
2026-05-04 23:17 -33.85764 -70.75970 13309 ft 384 kts 177°
2026-05-04 23:17 -33.88437 -70.75677 13889 ft 387 kts 178°
2026-05-04 23:18 -33.91133 -70.75384 14435 ft 389 kts 179°
2026-05-04 23:18 -33.93826 -70.75434 15000 ft 387 kts 190°
2026-05-04 23:18 -33.96488 -70.75869 15541 ft 387 kts 192°
2026-05-04 23:18 -33.99157 -70.76323 16110 ft 388 kts 192°
2026-05-04 23:19 -34.01833 -70.76778 16650 ft 390 kts 193°
2026-05-04 23:19 -34.04521 -70.77232 17246 ft 391 kts 193°
2026-05-04 23:19 -34.07218 -70.77686 17861 ft 391 kts 193°
2026-05-04 23:19 -34.09916 -70.78141 18467 ft 392 kts 194°
2026-05-04 23:20 -34.12626 -70.78601 18984 ft 394 kts 194°
2026-05-04 23:20 -34.15346 -70.79065 19506 ft 396 kts 194°
2026-05-04 23:20 -34.18084 -70.79532 20035 ft 398 kts 195°
2026-05-04 23:20 -34.20833 -70.79999 20557 ft 400 kts 195°
2026-05-04 23:21 -34.23603 -70.80466 21032 ft 403 kts 195°
2026-05-04 23:21 -34.26346 -70.80925 21504 ft 405 kts 195°
2026-05-04 23:21 -34.29147 -70.81394 21953 ft 407 kts 195°
2026-05-04 23:21 -34.31957 -70.81868 22390 ft 409 kts 196°
2026-05-04 23:22 -34.34788 -70.82350 22817 ft 411 kts 196°
2026-05-04 23:22 -34.37629 -70.82836 23241 ft 413 kts 196°
2026-05-04 23:22 -34.40484 -70.83324 23646 ft 416 kts 197°
2026-05-04 23:22 -34.43354 -70.83814 23999 ft 418 kts 197°
2026-05-04 23:23 -34.46237 -70.84308 24333 ft 420 kts 197°
2026-05-04 23:23 -34.49137 -70.84803 24667 ft 421 kts 197°
2026-05-04 23:23 -34.52051 -70.85298 25013 ft 423 kts 197°
2026-05-04 23:23 -34.54974 -70.85797 25347 ft 425 kts 197°
2026-05-04 23:24 -34.57911 -70.86299 25678 ft 427 kts 197°
2026-05-04 23:24 -34.60859 -70.86798 26002 ft 429 kts 197°
2026-05-04 23:24 -34.63825 -70.87302 26316 ft 432 kts 197°
2026-05-04 23:24 -34.66806 -70.87809 26655 ft 433 kts 197°
2026-05-04 23:25 -34.69752 -70.88311 26932 ft 435 kts 197°
2026-05-04 23:25 -34.72793 -70.88831 27239 ft 436 kts 197°
2026-05-04 23:25 -34.75792 -70.89345 27620 ft 435 kts 197°
2026-05-04 23:25 -34.78781 -70.89855 28110 ft 433 kts 197°
2026-05-04 23:26 -34.81719 -70.90357 28577 ft 431 kts 197°
2026-05-04 23:26 -34.84690 -70.90867 29044 ft 430 kts 197°
2026-05-04 23:26 -34.87652 -70.91374 29521 ft 429 kts 197°
2026-05-04 23:26 -34.90600 -70.91878 30015 ft 427 kts 197°
2026-05-04 23:27 -34.93540 -70.92382 30426 ft 426 kts 198°
2026-05-04 23:27 -34.96481 -70.92888 30810 ft 425 kts 198°
2026-05-04 23:27 -34.99402 -70.93395 31200 ft 423 kts 198°
2026-05-04 23:27 -35.02320 -70.93902 31583 ft 422 kts 198°
2026-05-04 23:28 -35.05225 -70.94401 31919 ft 421 kts 198°
2026-05-04 23:28 -35.08124 -70.94897 32345 ft 420 kts 198°
2026-05-04 23:28 -35.10972 -70.95384 32785 ft 418 kts 198°
2026-05-04 23:28 -35.13847 -70.95879 33224 ft 416 kts 198°
2026-05-04 23:29 -35.16709 -70.96375 33654 ft 415 kts 198°
2026-05-04 23:29 -35.19559 -70.96869 34044 ft 413 kts 198°
2026-05-04 23:29 -35.22397 -70.97361 34355 ft 412 kts 198°
2026-05-04 23:29 -35.25229 -70.97853 34661 ft 410 kts 199°
2026-05-04 23:30 -35.28051 -70.98346 34863 ft 409 kts 199°
2026-05-04 23:30 -35.30870 -70.98840 35006 ft 410 kts 199°
2026-05-04 23:30 -35.36599 -70.99848 35022 ft 421 kts 199°
2026-05-04 23:31 -35.42466 -71.00883 35024 ft 429 kts 198°
2026-05-04 23:31 -35.48387 -71.01907 35023 ft 430 kts 198°
2026-05-04 23:32 -35.54327 -71.02936 35022 ft 431 kts 198°
2026-05-04 23:32 -35.60257 -71.03961 35021 ft 429 kts 198°
2026-05-04 23:33 -35.66174 -71.05002 35023 ft 430 kts 198°
2026-05-04 23:33 -35.72065 -71.06037 35024 ft 431 kts 198°
2026-05-04 23:34 -35.78009 -71.07080 35022 ft 431 kts 198°
2026-05-04 23:34 -35.83959 -71.08130 35027 ft 432 kts 198°
2026-05-04 23:35 -35.89900 -71.09174 35028 ft 432 kts 198°
2026-05-04 23:35 -35.95853 -71.10225 35032 ft 432 kts 198°
2026-05-04 23:36 -36.01805 -71.11278 35027 ft 431 kts 199°
2026-05-04 23:36 -36.07754 -71.12334 35038 ft 432 kts 199°
2026-05-04 23:37 -36.13704 -71.13380 35034 ft 431 kts 199°
2026-05-04 23:37 -36.19601 -71.14426 35042 ft 431 kts 199°
2026-05-04 23:38 -36.25543 -71.15491 35041 ft 432 kts 199°
2026-05-04 23:38 -36.31487 -71.16559 35039 ft 432 kts 199°
2026-05-04 23:39 -36.37442 -71.17619 35040 ft 432 kts 199°
2026-05-04 23:39 -36.43391 -71.18674 35040 ft 432 kts 199°
2026-05-04 23:40 -36.49343 -71.19735 35036 ft 432 kts 199°
2026-05-04 23:40 -36.55301 -71.20816 35033 ft 433 kts 199°
2026-05-04 23:41 -36.61283 -71.21889 35040 ft 435 kts 199°
2026-05-04 23:41 -36.66259 -71.22776 35042 ft 435 kts 199°
2026-05-04 23:42 -36.73225 -71.24030 35025 ft 435 kts 199°
2026-05-04 23:42 -36.78254 -71.24937 35037 ft 436 kts 199°
2026-05-04 23:43 -36.84253 -71.26022 35034 ft 435 kts 199°
2026-05-04 23:43 -36.90247 -71.27105 35037 ft 435 kts 199°
2026-05-04 23:44 -36.96207 -71.28187 35038 ft 435 kts 199°
2026-05-04 23:44 -37.02201 -71.29274 35041 ft 435 kts 199°
2026-05-04 23:45 -37.08209 -71.30372 35044 ft 436 kts 199°
2026-05-04 23:45 -37.14218 -71.31463 35041 ft 436 kts 199°
2026-05-04 23:46 -37.20238 -71.32562 34993 ft 438 kts 198°
2026-05-04 23:46 -37.26286 -71.33670 34996 ft 441 kts 198°
2026-05-04 23:47 -37.32332 -71.34778 35008 ft 443 kts 198°
2026-05-04 23:47 -37.38439 -71.35884 35018 ft 444 kts 198°
2026-05-04 23:48 -37.44560 -71.37008 35024 ft 445 kts 198°
2026-05-04 23:48 -37.50683 -71.38133 35029 ft 445 kts 198°
2026-05-04 23:49 -37.56813 -71.39261 35045 ft 446 kts 198°
2026-05-04 23:49 -37.62961 -71.40397 35041 ft 446 kts 199°
2026-05-04 23:50 -37.69112 -71.41534 35039 ft 447 kts 198°
2026-05-04 23:50 -37.75225 -71.42671 35038 ft 447 kts 199°
2026-05-04 23:51 -37.81385 -71.43813 35041 ft 448 kts 199°
2026-05-04 23:51 -37.87548 -71.44954 35043 ft 447 kts 199°
2026-05-04 23:52 -37.93708 -71.46112 35050 ft 448 kts 199°
2026-05-04 23:52 -37.99863 -71.47257 35041 ft 446 kts 199°
2026-05-04 23:53 -38.06025 -71.48396 35045 ft 447 kts 199°
2026-05-04 23:53 -38.12184 -71.49541 35041 ft 447 kts 199°
2026-05-04 23:54 -38.18298 -71.50687 35049 ft 447 kts 199°
2026-05-04 23:54 -38.24460 -71.51855 35046 ft 447 kts 199°
2026-05-04 23:55 -38.30605 -71.53010 35047 ft 446 kts 199°
2026-05-04 23:56 -38.39826 -71.54736 35042 ft 446 kts 199°
2026-05-04 23:56 -38.45964 -71.55899 35035 ft 446 kts 199°
2026-05-04 23:57 -38.52099 -71.57067 35031 ft 446 kts 199°
2026-05-04 23:57 -38.58238 -71.58226 35026 ft 445 kts 199°
2026-05-04 23:58 -38.64370 -71.59393 35033 ft 446 kts 200°
2026-05-04 23:58 -38.70517 -71.60567 35031 ft 446 kts 200°
2026-05-04 23:59 -38.76618 -71.61726 35035 ft 446 kts 200°
2026-05-04 23:59 -38.82753 -71.62882 35032 ft 445 kts 200°
2026-05-05 00:00 -38.88875 -71.64043 35034 ft 444 kts 200°
2026-05-05 00:00 -38.94981 -71.65212 35031 ft 444 kts 200°
2026-05-05 00:01 -39.01087 -71.66396 35026 ft 443 kts 200°
2026-05-05 00:01 -39.07180 -71.67565 35020 ft 442 kts 200°
2026-05-05 00:02 -39.13267 -71.68739 35021 ft 442 kts 200°
2026-05-05 00:02 -39.19346 -71.69921 35012 ft 441 kts 200°
2026-05-05 00:03 -39.25412 -71.71097 35013 ft 441 kts 200°
2026-05-05 00:03 -39.31472 -71.72256 35007 ft 440 kts 200°
2026-05-05 00:04 -39.37520 -71.73417 35004 ft 439 kts 201°
2026-05-05 00:04 -39.43553 -71.74593 34999 ft 438 kts 201°
2026-05-05 00:05 -39.49542 -71.75759 34996 ft 438 kts 201°
2026-05-05 00:05 -39.55564 -71.76936 34992 ft 438 kts 201°
2026-05-05 00:06 -39.61583 -71.78112 34991 ft 438 kts 201°
2026-05-05 00:06 -39.67608 -71.79298 34985 ft 438 kts 201°
2026-05-05 00:07 -39.73625 -71.80469 34983 ft 438 kts 201°
2026-05-05 00:07 -39.79641 -71.81646 34976 ft 437 kts 201°
2026-05-05 00:08 -39.85650 -71.82832 34974 ft 437 kts 202°
2026-05-05 00:08 -39.91656 -71.84020 34978 ft 436 kts 202°
2026-05-05 00:09 -39.97667 -71.85201 34975 ft 437 kts 202°
2026-05-05 00:09 -40.03641 -71.86379 34973 ft 437 kts 202°
2026-05-05 00:10 -40.09648 -71.87575 34974 ft 437 kts 202°
2026-05-05 00:10 -40.15656 -71.88764 34969 ft 436 kts 202°
2026-05-05 00:11 -40.21657 -71.89946 34962 ft 436 kts 202°
2026-05-05 00:11 -40.27660 -71.91141 34959 ft 436 kts 202°
2026-05-05 00:12 -40.33652 -71.92341 34967 ft 435 kts 202°
2026-05-05 00:12 -40.39643 -71.93546 34963 ft 434 kts 203°
2026-05-05 00:13 -40.45578 -71.94733 34967 ft 435 kts 203°
2026-05-05 00:13 -40.51552 -71.95924 34961 ft 434 kts 203°
2026-05-05 00:14 -40.57518 -71.97121 34966 ft 434 kts 203°
2026-05-05 00:14 -40.63480 -71.98322 34965 ft 434 kts 203°
2026-05-05 00:15 -40.69445 -71.99514 34961 ft 433 kts 203°
2026-05-05 00:15 -40.75402 -72.00715 34964 ft 433 kts 203°
2026-05-05 00:16 -40.81347 -72.01921 34950 ft 431 kts 203°
2026-05-05 00:16 -40.87282 -72.03133 34949 ft 432 kts 203°
2026-05-05 00:17 -40.93221 -72.04343 34946 ft 432 kts 203°
2026-05-05 00:17 -40.99166 -72.05539 34943 ft 432 kts 203°
2026-05-05 00:18 -41.05117 -72.06747 34962 ft 432 kts 203°
2026-05-05 00:18 -41.11051 -72.07961 34963 ft 430 kts 203°
2026-05-05 00:19 -41.16970 -72.09184 34974 ft 431 kts 204°
2026-05-05 00:19 -41.22899 -72.10402 34968 ft 430 kts 204°
2026-05-05 00:20 -41.28779 -72.11593 34965 ft 430 kts 203°
2026-05-05 00:20 -41.34746 -72.12613 34963 ft 433 kts 201°
2026-05-05 00:21 -41.40744 -72.13474 34960 ft 434 kts 201°
2026-05-05 00:21 -41.46732 -72.14356 34963 ft 433 kts 202°
2026-05-05 00:22 -41.52711 -72.15280 34965 ft 432 kts 202°
2026-05-05 00:22 -41.58694 -72.16224 34959 ft 432 kts 202°
2026-05-05 00:23 -41.64654 -72.17150 34959 ft 431 kts 202°
2026-05-05 00:23 -41.70570 -72.18073 34950 ft 428 kts 202°
2026-05-05 00:24 -41.76503 -72.19014 34954 ft 430 kts 202°
2026-05-05 00:24 -41.82451 -72.19957 34957 ft 430 kts 202°
2026-05-05 00:25 -41.88359 -72.20879 34957 ft 430 kts 203°
2026-05-05 00:25 -41.94303 -72.21809 34960 ft 430 kts 203°
2026-05-05 00:26 -42.00236 -72.22750 34959 ft 429 kts 203°
2026-05-05 00:26 -42.02199 -72.23064 34957 ft 429 kts 203°
2026-05-05 00:27 -42.05428 -72.23748 34938 ft 423 kts 205°
2026-05-05 00:27 -42.11265 -72.24703 34920 ft 428 kts 202°
2026-05-05 00:28 -42.17188 -72.25476 34920 ft 427 kts 202°
2026-05-05 00:28 -42.23085 -72.26351 34932 ft 426 kts 204°
2026-05-05 00:29 -42.28968 -72.27308 34945 ft 427 kts 204°
2026-05-05 00:29 -42.34861 -72.28276 34953 ft 427 kts 204°
2026-05-05 00:30 -42.40756 -72.29231 34926 ft 426 kts 204°
2026-05-05 00:30 -42.46643 -72.30174 34938 ft 426 kts 204°
2026-05-05 00:31 -42.52547 -72.31121 34953 ft 427 kts 204°
2026-05-05 00:31 -42.58434 -72.32063 34944 ft 426 kts 204°
2026-05-05 00:32 -42.64330 -72.33013 34946 ft 427 kts 204°
2026-05-05 00:32 -42.70230 -72.33968 34947 ft 427 kts 204°
2026-05-05 00:33 -42.76097 -72.34921 34951 ft 427 kts 204°
2026-05-05 00:33 -42.82001 -72.35879 34937 ft 427 kts 204°
2026-05-05 00:34 -42.87909 -72.36846 34944 ft 428 kts 204°
2026-05-05 00:34 -42.93826 -72.37810 34946 ft 429 kts 204°
2026-05-05 00:35 -42.99753 -72.38768 34922 ft 427 kts 204°
2026-05-05 00:35 -43.05660 -72.39738 34933 ft 429 kts 206°
2026-05-05 00:36 -43.11577 -72.40715 34937 ft 429 kts 204°
2026-05-05 00:36 -43.17506 -72.41685 34939 ft 429 kts 204°
2026-05-05 00:37 -43.23424 -72.42652 34930 ft 428 kts 204°
2026-05-05 00:37 -43.28344 -72.43468 34928 ft 429 kts 205°
2026-05-05 00:38 -43.35229 -72.44612 34932 ft 429 kts 204°
2026-05-05 00:38 -43.41148 -72.45585 34931 ft 429 kts 204°
2026-05-05 00:39 -43.47067 -72.46562 34935 ft 428 kts 204°
2026-05-05 00:39 -43.51971 -72.47383 34932 ft 427 kts 204°
2026-05-05 00:40 -43.57876 -72.48377 34936 ft 428 kts 205°
2026-05-05 00:40 -43.63780 -72.49361 34931 ft 427 kts 204°
2026-05-05 00:41 -43.69690 -72.50343 34936 ft 428 kts 204°
2026-05-05 00:41 -43.75603 -72.51331 34938 ft 428 kts 204°
2026-05-05 00:42 -43.81508 -72.52318 34921 ft 427 kts 205°
2026-05-05 00:42 -43.87401 -72.53316 34931 ft 427 kts 205°
2026-05-05 00:43 -43.93251 -72.54304 34906 ft 426 kts 205°
2026-05-05 00:43 -43.99148 -72.55297 34920 ft 427 kts 205°
2026-05-05 00:44 -44.05047 -72.56293 34923 ft 426 kts 205°
2026-05-05 00:44 -44.10938 -72.57298 34925 ft 426 kts 205°
2026-05-05 00:45 -44.16814 -72.58296 34927 ft 425 kts 205°
2026-05-05 00:45 -44.22692 -72.59294 34925 ft 425 kts 205°
2026-05-05 00:46 -44.28560 -72.60292 34920 ft 424 kts 205°
2026-05-05 00:46 -44.34383 -72.61287 34920 ft 424 kts 205°
2026-05-05 00:47 -44.40231 -72.62288 34914 ft 424 kts 205°
2026-05-05 00:47 -44.46085 -72.63295 34914 ft 424 kts 205°
2026-05-05 00:48 -44.51937 -72.64301 34911 ft 423 kts 205°
2026-05-05 00:48 -44.57791 -72.65311 34916 ft 424 kts 204°
2026-05-05 00:49 -44.63648 -72.66322 34910 ft 424 kts 204°
2026-05-05 00:49 -44.69489 -72.67326 34905 ft 423 kts 204°
2026-05-05 00:50 -44.75287 -72.68325 34898 ft 423 kts 204°
2026-05-05 00:50 -44.81124 -72.69338 34908 ft 422 kts 204°
2026-05-05 00:51 -44.86959 -72.70354 34890 ft 422 kts 204°
2026-05-05 00:51 -44.92596 -72.71340 34894 ft 423 kts 203°
2026-05-05 00:52 -44.98437 -72.72365 34888 ft 423 kts 202°
2026-05-05 00:52 -45.04235 -72.73376 34883 ft 424 kts 202°
2026-05-05 00:53 -45.10089 -72.74400 34869 ft 424 kts 202°
2026-05-05 00:53 -45.15943 -72.75430 34855 ft 424 kts 201°
2026-05-05 00:54 -45.21810 -72.76469 34865 ft 426 kts 201°
2026-05-05 00:54 -45.27699 -72.77515 34854 ft 427 kts 200°
2026-05-05 00:55 -45.33595 -72.78543 34850 ft 427 kts 200°
2026-05-05 00:55 -45.39462 -72.79578 34845 ft 428 kts 200°
2026-05-05 00:56 -45.45379 -72.80634 34846 ft 429 kts 199°
2026-05-05 00:56 -45.51311 -72.81700 34847 ft 430 kts 199°
2026-05-05 00:57 -45.57243 -72.82747 34846 ft 430 kts 199°
2026-05-05 00:57 -45.63179 -72.83801 34917 ft 431 kts 198°
2026-05-05 00:57 -45.66157 -72.84332 35115 ft 431 kts 198°
2026-05-05 00:58 -45.69131 -72.84862 35180 ft 431 kts 198°
2026-05-05 00:58 -45.75065 -72.85925 35331 ft 429 kts 198°
2026-05-05 00:59 -45.80983 -72.86993 35475 ft 429 kts 198°
2026-05-05 00:59 -45.86899 -72.88057 35636 ft 428 kts 197°
2026-05-05 01:00 -45.92806 -72.89124 35783 ft 428 kts 197°
2026-05-05 01:00 -45.98720 -72.90200 35935 ft 428 kts 197°
2026-05-05 01:01 -46.04628 -72.91265 36089 ft 428 kts 197°
2026-05-05 01:01 -46.10539 -72.92337 36238 ft 427 kts 196°
2026-05-05 01:02 -46.16437 -72.93418 36386 ft 427 kts 196°
2026-05-05 01:02 -46.22293 -72.94491 36545 ft 427 kts 196°
2026-05-05 01:03 -46.28181 -72.95565 36775 ft 427 kts 196°
2026-05-05 01:03 -46.34077 -72.96635 36788 ft 427 kts 196°
2026-05-05 01:04 -46.39964 -72.97718 36785 ft 426 kts 196°
2026-05-05 01:04 -46.48801 -72.99346 36774 ft 427 kts 196°
2026-05-05 01:05 -46.54699 -73.00437 36777 ft 428 kts 196°
2026-05-05 01:05 -46.60605 -73.01538 36779 ft 428 kts 195°
2026-05-05 01:06 -46.66475 -73.02632 36770 ft 428 kts 195°
2026-05-05 01:06 -46.72389 -73.03729 36770 ft 429 kts 195°
2026-05-05 01:07 -46.78318 -73.04820 36770 ft 430 kts 195°
2026-05-05 01:07 -46.84259 -73.05926 36772 ft 430 kts 195°
2026-05-05 01:08 -46.90200 -73.07047 36775 ft 431 kts 195°
2026-05-05 01:08 -46.96152 -73.08172 36767 ft 431 kts 195°
2026-05-05 01:09 -47.02108 -73.09281 36772 ft 432 kts 195°
2026-05-05 01:09 -47.08062 -73.10392 36767 ft 432 kts 195°
2026-05-05 01:10 -47.13984 -73.11520 36764 ft 431 kts 195°
2026-05-05 01:10 -47.19941 -73.12656 36757 ft 432 kts 195°
2026-05-05 01:11 -47.25899 -73.13790 36757 ft 432 kts 194°
2026-05-05 01:11 -47.31869 -73.14928 36756 ft 433 kts 194°
2026-05-05 01:12 -47.37829 -73.16070 36761 ft 432 kts 194°
2026-05-05 01:12 -47.43803 -73.17208 36753 ft 433 kts 194°
2026-05-05 01:13 -47.49776 -73.18358 36756 ft 433 kts 194°
2026-05-05 01:13 -47.55721 -73.19493 36756 ft 433 kts 194°
2026-05-05 01:14 -47.61692 -73.20642 36756 ft 433 kts 194°
2026-05-05 01:14 -47.67670 -73.21800 36759 ft 433 kts 194°
2026-05-05 01:15 -47.73646 -73.22963 36757 ft 433 kts 194°
2026-05-05 01:15 -47.79628 -73.24124 36751 ft 433 kts 194°
2026-05-05 01:16 -47.85599 -73.25290 36743 ft 433 kts 194°
2026-05-05 01:16 -47.91582 -73.26456 36743 ft 433 kts 194°
2026-05-05 01:17 -47.97559 -73.27622 36736 ft 433 kts 194°
2026-05-05 01:17 -48.03499 -73.28792 36739 ft 433 kts 194°
2026-05-05 01:18 -48.09473 -73.29976 36743 ft 433 kts 194°
2026-05-05 01:18 -48.15453 -73.31149 36736 ft 433 kts 193°
2026-05-05 01:19 -48.21433 -73.32320 36738 ft 433 kts 193°
2026-05-05 01:19 -48.27412 -73.33501 36734 ft 433 kts 193°
2026-05-05 01:20 -48.33384 -73.34680 36727 ft 433 kts 193°
2026-05-05 01:20 -48.39358 -73.35874 36721 ft 433 kts 193°
2026-05-05 01:21 -48.45331 -73.37058 36720 ft 433 kts 193°
2026-05-05 01:21 -48.51306 -73.38250 36716 ft 433 kts 193°
2026-05-05 01:22 -48.57280 -73.39447 36710 ft 433 kts 193°
2026-05-05 01:22 -48.63244 -73.40643 36705 ft 432 kts 193°
2026-05-05 01:23 -48.69214 -73.41851 36698 ft 433 kts 193°
2026-05-05 01:23 -48.75143 -73.43040 36693 ft 433 kts 193°
2026-05-05 01:24 -48.81114 -73.44250 36685 ft 433 kts 193°
2026-05-05 01:24 -48.87091 -73.45461 36677 ft 433 kts 193°
2026-05-05 01:25 -48.93064 -73.46677 36679 ft 433 kts 193°
2026-05-05 01:25 -48.99049 -73.47884 36678 ft 434 kts 193°
2026-05-05 01:26 -49.05034 -73.49093 36672 ft 434 kts 193°
2026-05-05 01:26 -49.11027 -73.50320 36665 ft 435 kts 193°
2026-05-05 01:27 -49.16816 -73.51518 36668 ft 435 kts 193°
2026-05-05 01:27 -49.22832 -73.52748 36661 ft 436 kts 193°
2026-05-05 01:28 -49.28843 -73.53986 36661 ft 436 kts 193°
2026-05-05 01:28 -49.34870 -73.55233 36659 ft 437 kts 192°
2026-05-05 01:29 -49.40891 -73.56471 36647 ft 437 kts 192°
2026-05-05 01:29 -49.46919 -73.57730 36644 ft 437 kts 192°
2026-05-05 01:30 -49.52949 -73.58989 36642 ft 437 kts 192°
2026-05-05 01:30 -49.58990 -73.60254 36641 ft 438 kts 192°
2026-05-05 01:31 -49.64996 -73.61506 36640 ft 438 kts 192°
2026-05-05 01:31 -49.71044 -73.62764 36637 ft 439 kts 192°
2026-05-05 01:32 -49.77096 -73.64046 36632 ft 439 kts 192°
2026-05-05 01:32 -49.83159 -73.65327 36627 ft 439 kts 192°
2026-05-05 01:33 -49.89222 -73.66599 36626 ft 440 kts 192°
2026-05-05 01:33 -49.95283 -73.67870 36620 ft 440 kts 191°
2026-05-05 01:34 -50.00367 -73.68954 36622 ft 440 kts 191°
2026-05-05 01:34 -50.06435 -73.70253 36612 ft 440 kts 191°
2026-05-05 01:35 -50.12508 -73.71553 36614 ft 441 kts 191°
2026-05-05 01:35 -50.18591 -73.72848 36609 ft 441 kts 191°
2026-05-05 01:36 -50.24672 -73.74151 36603 ft 441 kts 191°
2026-05-05 01:36 -50.30753 -73.75463 36601 ft 441 kts 190°
2026-05-05 01:37 -50.36908 -73.75033 36603 ft 450 kts 169°
2026-05-05 01:37 -50.42682 -73.71128 36590 ft 457 kts 152°
2026-05-05 01:38 -50.48147 -73.66005 36590 ft 458 kts 152°
2026-05-05 01:38 -50.53622 -73.60881 36597 ft 458 kts 152°
2026-05-05 01:39 -50.59098 -73.55745 36589 ft 458 kts 152°
2026-05-05 01:39 -50.64576 -73.50586 36590 ft 459 kts 152°
2026-05-05 01:40 -50.70047 -73.45424 36598 ft 459 kts 152°
2026-05-05 01:40 -50.75526 -73.40238 36592 ft 459 kts 152°
2026-05-05 01:41 -50.80992 -73.35044 36597 ft 458 kts 152°
2026-05-05 01:41 -50.86453 -73.29842 36597 ft 458 kts 152°
2026-05-05 01:42 -50.91917 -73.24639 36595 ft 458 kts 151°
2026-05-05 01:42 -50.97336 -73.19450 36595 ft 458 kts 151°
2026-05-05 01:43 -51.02785 -73.14223 36594 ft 458 kts 151°
2026-05-05 01:43 -51.08232 -73.08986 36586 ft 457 kts 151°
2026-05-05 01:44 -51.13699 -73.03696 36599 ft 457 kts 151°
2026-05-05 01:44 -51.19124 -72.98436 36592 ft 456 kts 151°
2026-05-05 01:45 -51.24547 -72.93184 36590 ft 456 kts 151°
2026-05-05 01:45 -51.29959 -72.87912 36595 ft 456 kts 150°
2026-05-05 01:46 -51.35203 -72.82759 36594 ft 455 kts 150°
2026-05-05 01:46 -51.40560 -72.77488 36592 ft 455 kts 150°
2026-05-05 01:47 -51.45989 -72.72148 36592 ft 454 kts 150°
2026-05-05 01:47 -51.51334 -72.66873 36363 ft 453 kts 150°
2026-05-05 01:48 -51.54010 -72.64222 35905 ft 451 kts 150°
2026-05-05 01:48 -51.56688 -72.61566 35181 ft 453 kts 149°
2026-05-05 01:48 -51.59381 -72.58890 34406 ft 455 kts 149°
2026-05-05 01:48 -51.62075 -72.56213 33593 ft 457 kts 148°
2026-05-05 01:49 -51.64759 -72.53545 32644 ft 449 kts 148°
2026-05-05 01:49 -51.67387 -72.50927 31783 ft 438 kts 148°
2026-05-05 01:49 -51.69958 -72.48365 30910 ft 434 kts 147°
2026-05-05 01:49 -51.72508 -72.45822 30437 ft 427 kts 147°
2026-05-05 01:50 -51.74936 -72.43094 29884 ft 424 kts 142°
2026-05-05 01:50 -51.77280 -72.40232 29277 ft 421 kts 142°
2026-05-05 01:50 -51.79604 -72.37401 28720 ft 416 kts 142°
2026-05-05 01:50 -51.81908 -72.34602 28179 ft 412 kts 142°
2026-05-05 01:51 -51.84186 -72.31833 27635 ft 408 kts 143°
2026-05-05 01:51 -51.86441 -72.29085 27098 ft 404 kts 143°
2026-05-05 01:51 -51.88676 -72.26352 26565 ft 401 kts 143°
2026-05-05 01:51 -51.90893 -72.23636 26039 ft 398 kts 143°
2026-05-05 01:52 -51.93094 -72.20936 25516 ft 396 kts 143°
2026-05-05 01:52 -51.95290 -72.18249 25000 ft 395 kts 143°
2026-05-05 01:52 -51.97481 -72.15567 24490 ft 393 kts 144°
2026-05-05 01:52 -51.99661 -72.12896 23986 ft 393 kts 144°
2026-05-05 01:53 -52.01835 -72.10226 23506 ft 392 kts 144°
2026-05-05 01:53 -52.04003 -72.07552 22989 ft 391 kts 144°
2026-05-05 01:53 -52.06165 -72.04881 22488 ft 389 kts 144°
2026-05-05 01:53 -52.08310 -72.02221 22016 ft 387 kts 143°
2026-05-05 01:54 -52.10401 -71.99477 21552 ft 385 kts 141°
2026-05-05 01:54 -52.12415 -71.96668 21171 ft 380 kts 140°
2026-05-05 01:54 -52.14400 -71.93815 20631 ft 380 kts 140°
2026-05-05 01:54 -52.16367 -71.90962 20176 ft 377 kts 140°
2026-05-05 01:55 -52.18325 -71.88134 19702 ft 375 kts 140°
2026-05-05 01:55 -52.20281 -71.85331 19220 ft 373 kts 140°
2026-05-05 01:55 -52.22232 -71.82557 18740 ft 371 kts 140°
2026-05-05 01:55 -52.24177 -71.79799 18249 ft 370 kts 141°
2026-05-05 01:56 -52.26112 -71.77053 17741 ft 368 kts 140°
2026-05-05 01:56 -52.28040 -71.74317 17202 ft 366 kts 140°
2026-05-05 01:56 -52.29950 -71.71607 16701 ft 363 kts 140°
2026-05-05 01:56 -52.31849 -71.68904 16196 ft 360 kts 140°
2026-05-05 01:57 -52.33730 -71.66220 15694 ft 358 kts 140°
2026-05-05 01:57 -52.35601 -71.63550 15189 ft 356 kts 140°
2026-05-05 01:57 -52.37459 -71.60901 14687 ft 354 kts 140°
2026-05-05 01:57 -52.39311 -71.58256 14187 ft 352 kts 140°
2026-05-05 01:58 -52.41128 -71.55655 13689 ft 351 kts 140°
2026-05-05 01:58 -52.42986 -71.52992 13164 ft 350 kts 140°
2026-05-05 01:58 -52.44787 -71.50408 12648 ft 347 kts 140°
2026-05-05 01:58 -52.46597 -71.47804 12147 ft 345 kts 140°
2026-05-05 01:59 -52.48390 -71.45216 11647 ft 342 kts 140°
2026-05-05 01:59 -52.50172 -71.42642 11161 ft 340 kts 140°
2026-05-05 01:59 -52.51945 -71.40081 10669 ft 339 kts 140°
2026-05-05 01:59 -52.53713 -71.37526 10181 ft 337 kts 140°
2026-05-05 02:00 -52.55459 -71.35001 9935 ft 329 kts 140°
2026-05-05 02:00 -52.57135 -71.32571 9796 ft 311 kts 140°
2026-05-05 02:00 -52.58731 -71.30251 9594 ft 302 kts 140°
2026-05-05 02:00 -52.60283 -71.27994 9460 ft 296 kts 140°
2026-05-05 02:01 -52.61820 -71.25759 9339 ft 294 kts 140°
2026-05-05 02:01 -52.63358 -71.23536 9193 ft 293 kts 142°
2026-05-05 02:01 -52.65072 -71.21752 8816 ft 293 kts 158°
2026-05-05 02:01 -52.66956 -71.20683 8477 ft 288 kts 164°
2026-05-05 02:02 -52.68768 -71.19734 8076 ft 289 kts 164°
2026-05-05 02:02 -52.70663 -71.18715 7793 ft 285 kts 163°
2026-05-05 02:02 -52.72543 -71.17694 7437 ft 282 kts 163°
2026-05-05 02:02 -52.74394 -71.16686 6855 ft 279 kts 163°
2026-05-05 02:03 -52.76230 -71.15687 6286 ft 276 kts 163°
2026-05-05 02:03 -52.78044 -71.14697 5721 ft 273 kts 163°
2026-05-05 02:03 -52.79838 -71.13716 5151 ft 270 kts 163°
2026-05-05 02:03 -52.81611 -71.12752 4620 ft 267 kts 163°
2026-05-05 02:04 -52.83387 -71.11785 4241 ft 269 kts 163°
2026-05-05 02:04 -52.85138 -71.10831 3864 ft 270 kts 162°
2026-05-05 02:04 -52.86888 -71.09879 3613 ft 267 kts 162°
2026-05-05 02:04 -52.88656 -71.08918 3235 ft 268 kts 161°
2026-05-05 02:05 -52.90406 -71.07966 3060 ft 261 kts 161°
2026-05-05 02:05 -52.92107 -71.07043 2940 ft 253 kts 161°
2026-05-05 02:05 -52.93768 -71.06259 2831 ft 244 kts 164°
2026-05-05 02:05 -52.95385 -71.05596 2721 ft 234 kts 165°
2026-05-05 02:06 -52.96933 -71.04987 2626 ft 222 kts 165°
2026-05-05 02:06 -52.98349 -71.04170 2405 ft 213 kts 148°
2026-05-05 02:06 -52.99451 -71.02590 2099 ft 208 kts 125°
2026-05-05 02:06 -53.00094 -71.00499 1813 ft 199 kts 104°
2026-05-05 02:07 -53.00241 -70.98296 1587 ft 186 kts 87°
2026-05-05 02:07 -53.00209 -70.96235 1310 ft 170 kts 88°
2026-05-05 02:07 -53.00185 -70.94395 1104 ft 147 kts 86°
2026-05-05 02:07 -53.00163 -70.92764 891 ft 137 kts 88°
2026-05-05 02:08 -53.00143 -70.91220 671 ft 132 kts 88°
2026-05-05 02:08 -53.00122 -70.89710 505 ft 131 kts 89°
2026-05-05 02:08 -53.00120 -70.88208 368 ft 130 kts 89°
2026-05-05 02:08 -53.00104 -70.86703 191 ft 130 kts 84°
2026-05-05 02:09 -53.00103 -70.85400 183 ft 98 kts 86°
2026-05-05 02:09 -53.00077 -70.84451 184 ft 67 kts 89°
2026-05-05 02:09 -53.00065 -70.83839 181 ft 41 kts 88°
2026-05-05 02:09 -53.00065 -70.83513 179 ft 25 kts 91°
2026-05-05 02:10 -53.00069 -70.83284 182 ft 12 kts 94°
2026-05-05 02:10 -53.00058 -70.83235 182 ft 1 kts 327°
2026-05-05 02:10 -53.00060 -70.83267 182 ft 6 kts 268°
2026-05-05 02:10 -53.00062 -70.83349 181 ft 8 kts 268°
2026-05-05 02:11 -53.00084 -70.83424 181 ft 8 kts 197°
2026-05-05 02:11 -53.00139 -70.83423 181 ft 8 kts 179°
2026-05-05 02:11 -53.00196 -70.83422 181 ft 8 kts 179°
2026-05-05 02:11 -53.00239 -70.83457 181 ft 7 kts 246°
2026-05-05 02:12 -53.00238 -70.83542 181 ft 8 kts 274°
2026-05-05 02:12 -53.00241 -70.83827 180 ft 14 kts 268°
2026-05-05 02:12 -53.00243 -70.83992 180 ft 14 kts 269°
2026-05-05 02:13 -53.00245 -70.84144 180 ft 12 kts 269°
2026-05-05 02:13 -53.00246 -70.84279 180 ft 11 kts 269°
2026-05-05 02:13 -53.00279 -70.84374 180 ft 10 kts 195°
2026-05-05 02:13 -53.00343 -70.84372 179 ft 6 kts 179°
2026-05-05 02:14 -53.00379 -70.84389 178 ft 5 kts 226°
2026-05-05 02:14 -53.00385 -70.84446 178 ft 4 kts 229°
2026-05-05 02:14 -53.00413 -70.84453 178 ft 4 kts 182°
2026-05-05 02:14 -53.00436 -70.84451 178 ft 0 kts 177°
2026-05-05 02:15 -53.00440 -70.84451 178 ft 1 kts 178°
2026-05-05 02:15 -53.00447 -70.84450 178 ft 1 kts 179°
2026-05-05 02:15 -53.00449 -70.84450 178 ft 0 kts 179°